User: anonymous   Login
Location: ČR
(50.0000°N, 15.0000°E)
Time: 07:47:14
(UTC+00:00)
Language:

Transit 2A - Orbit

View from above orbital plane
View from above orbital plane
View from above satellite
View from above satellite

Ground track
Ground track

The orbit data is extracted from the following two-line orbital elements,

1 00045U 60007A   21293.92184037  .00000001  00000-0  27198-4 0  9995
2 00045  66.6938 168.3530 0260198 317.4158  40.7019 14.33744309136144
Epoch (UTC): 20 October 2021 22:07:27
Eccentricity: 0.0260198
inclination: 66.6938°
perigee height: 593 km
apogee height: 965 km
right ascension of ascending node: 168.3530°
argument of perigee: 317.4158°
revolutions per day: 14.33744309
mean anomaly at epoch: 40.7019°
orbit number at epoch: 13614

The dashed part of the orbit path shows where the satellite is in the earth's shadow,  

DLR